This demonstration page uses our WeatherBlox Daily Observations layout. Learn more.

Left ArrowRight Arrow

Hourly Observations for May 24, 2017

Temp ( °F °C ) Dew Point ( °F °C ) Humidity (%) Winds ( mph kmh ) Pressure ( in mb ) Visibility ( mi km ) Precip ( " mm )
12:54 am 00:54 Mostly Cloudy 52 11.1 46 7.8 80 80 NNW 14 22 29.85 1011 10 16.0934 0 0
1:54 am 01:54 Partly Cloudy 51 10.6 46 7.8 83 83 NNW 14 22 29.83 1010 10 16.0934 0 0
2:54 am 02:54 Clear 50 10 46 7.8 86 86 NNW 12 19 29.82 1010 10 16.0934 0 0
3:54 am 03:54 Clear 49 9.4 45 7.2 86 86 NNW 10 17 29.81 1010 10 16.0934 0 0
4:54 am 04:54 Clear 48 8.9 45 7.2 89 89 NNW 12 19 29.81 1010 10 16.0934 0 0
5:54 am 05:54 Clear 47 8.3 44 6.7 90 90 NNW 10 17 29.81 1009 10 16.0934 0 0
6:54 am 06:54 Partly Cloudy 48 8.9 44 6.7 86 86 NNW 13 20 29.81 1009 10 16.0934 0 0
7:54 am 07:54 Sunny 51 10.6 45 7.2 80 80 NNW 15 24 29.81 1009 10 16.0934 0 0
8:54 am 08:54 Sunny 55 12.8 47 8.3 74 74 NNW 12 19 29.8 1009 10 16.0934 0 0
9:54 am 09:54 Mostly Sunny 59 15 48 8.9 67 67 N 10 17 29.79 1009 10 16.0934 0 0
10:54 am 10:54 Mostly Cloudy 59 15 46 7.8 62 62 NNW 12 19 29.77 1008 10 16.0934 0 0
11:54 am 11:54 Partly Cloudy 63 17.2 47 8.3 56 56 N 13 20 29.76 1008 10 16.0934 0 0
12:54 pm 12:54 Partly Cloudy 63 17.2 44 6.7 50 50 N 12 19 29.74 1007 10 16.0934 0 0
1:54 pm 13:54 Partly Cloudy 66 18.9 46 7.8 49 49 N 9 15 29.71 1006 10 16.0934 0 0
2:54 pm 14:54 Mostly Cloudy 66 18.9 44 6.7 45 45 VRB 5 7 29.71 1006 10 16.0934 0 0
3:54 pm 15:54 Cloudy 67 19.4 44 6.7 44 44 VRB 3 6 29.7 1006 10 16.0934 0 0
4:54 pm 16:54 Partly Cloudy 67 19.4 42 5.6 41 41 Calm 29.69 1005 10 16.0934 0 0
5:54 pm 17:54 Mostly Sunny 66 18.9 42 5.6 42 42 Calm 29.68 1005 10 16.0934 0 0
6:54 pm 18:54 Sunny 68 20 42 5.6 39 39 S 3 6 29.66 1005 10 16.0934 0 0
7:54 pm 19:54 Sunny 65 18.3 42 5.6 43 43 Calm 29.66 1004 10 16.0934 0 0
8:54 pm 20:54 Clear 61 16.1 43 6.1 52 52 SE 6 9 29.66 1005 10 16.0934 0 0
9:54 pm 21:54 Clear 58 14.4 45 7.2 62 62 SE 3 6 29.66 1004 10 16.0934 0 0
10:54 pm 22:54 Clear 55 12.8 45 7.2 69 69 SE 5 7 29.68 1005 10 16.0934 0 0
11:54 pm 23:54 Clear 53 11.7 45 7.2 74 74 SSE 5 7 29.67 1005 10 16.0934 0 0

Powered by AerisWeather